Nanticoke River Seaford DE USA current weather conditions

sailwx.info

Wind from 342 at 1 knots gusting 2

Air temperature -5.0° C
Dewpoint -9.5° C

Last reported at 2020-Jan-18 09:50 UTC.
Time now 2020-Jan-18 11:13 UTC

Location: N 38°39' W 075°42'.
View on Google Maps.

See reports from other nearby stations

  
Tides and Currents Weather Stations Pressure Air Temp Water Temp Dewpoint Dewpoint Depression Visibility Wind Speed Wind Dir Waves Ship Positions
date/time (UTC)wind fromknots sea level pressurealtimeterstation pressurevisibilityair tempwater tempwave heightnotes
2020-Jan-18 09:50 342 1 gusting 2 -5.0
2020-Jan-18 09:45 327 1 gusting 2 -5.0
2020-Jan-18 09:40 338 1 gusting 1 -5.1
2020-Jan-18 09:35 338 1 gusting 1 -5.1
2020-Jan-18 09:30 323 1 gusting 1 -5.2
2020-Jan-18 09:25 317 1 gusting 2 -5.2
2020-Jan-18 09:20 324 1 gusting 1 -5.2
2020-Jan-18 09:15 329 1 gusting 1 -5.3
2020-Jan-18 09:10 312 0 gusting 1 -5.3
2020-Jan-18 09:05 303 1 gusting 1 -5.3
2020-Jan-18 09:00 313 1 gusting 1 -5.3
2020-Jan-18 08:55 318 1 gusting 2 -5.3
2020-Jan-18 08:50 303 1 gusting 2 -5.3
2020-Jan-18 08:45 299 0 gusting 1 -5.3
2020-Jan-18 08:40 278 1 gusting 1 -5.3
2020-Jan-18 08:35 278 1 gusting 2 -5.3
2020-Jan-18 08:30 274 1 gusting 2 -5.5
2020-Jan-18 08:25 275 1 gusting 1 -5.7
2020-Jan-18 08:20 289 1 gusting 1 -5.8
2020-Jan-18 08:15 290 1 gusting 1 -5.9
2020-Jan-18 08:10 292 0 gusting 1 -6.2
2020-Jan-18 08:05 291 1 gusting 1 -6.5
2020-Jan-18 08:00 313 1 gusting 1 -6.4
2020-Jan-18 07:55 323 0 gusting 1 -6.2
2020-Jan-18 07:50 329 0 gusting 0 -5.8
2020-Jan-18 07:45 089 0 gusting 0 -5.4
2020-Jan-18 07:40 079 1 gusting 2 -5.8
2020-Jan-18 07:35 030 0 gusting 0 -6.0
2020-Jan-18 07:30 075 0 gusting 1 -6.0
2020-Jan-18 07:25 052 0 gusting 0 -5.7
2020-Jan-18 07:20 061 0 gusting 1 -5.7
2020-Jan-18 07:15 042 0 gusting 0 -5.6
2020-Jan-18 07:10 096 0 gusting 1 -5.5
2020-Jan-18 07:05 114 1 gusting 1 -5.5
2020-Jan-18 07:00 112 1 gusting 2 -5.4
2020-Jan-18 06:55 099 2 gusting 2 -5.2
2020-Jan-18 06:50 091 2 gusting 4 -4.9
2020-Jan-18 06:45 082 1 gusting 2 -4.7
2020-Jan-18 06:40 070 1 gusting 1 -4.6
2020-Jan-18 06:35 066 1 gusting 2 -4.6
2020-Jan-18 06:30 091 1 gusting 2 -4.5
2020-Jan-18 06:25 087 0 gusting 1 -4.4
2020-Jan-18 06:20 091 0 gusting 1 -4.3
2020-Jan-18 06:15 077 1 gusting 2 -4.3
2020-Jan-18 06:10 091 1 gusting 2 -4.3
2020-Jan-18 06:05 070 1 gusting 3 -4.2
2020-Jan-18 06:00 059 1 gusting 3 -4.2
2020-Jan-18 05:55 038 1 gusting 3 -4.2
2020-Jan-18 05:50 062 1 gusting 3 -4.2
2020-Jan-18 05:45 053 1 gusting 2 -4.2
2020-Jan-18 05:40 056 1 gusting 2 -4.3
2020-Jan-18 05:35 048 0 gusting 2 -4.3
2020-Jan-18 05:30 069 3 gusting 6 -4.2
2020-Jan-18 05:25 076 2 gusting 4 -4.3
2020-Jan-18 05:20 062 1 gusting 2 -4.3
2020-Jan-18 05:15 023 1 gusting 3 -4.2
2020-Jan-18 05:10 005 0 gusting 1 -4.2
2020-Jan-18 05:05 027 1 gusting 4 -4.2
2020-Jan-18 05:00 015 2 gusting 4 -4.2
2020-Jan-18 04:55 034 1 gusting 5 -4.2
2020-Jan-18 04:50 066 1 gusting 4 -4.6
2020-Jan-18 04:45 014 1 gusting 2 -4.5
2020-Jan-18 04:40 019 1 gusting 3 -4.6
2020-Jan-18 04:35 052 1 gusting 3 -5.1
2020-Jan-18 04:30 055 0 gusting 2 -5.7
2020-Jan-18 04:25 096 1 gusting 2 -6.1
2020-Jan-18 04:20 106 1 gusting 2 -5.9
2020-Jan-18 04:15 129 1 gusting 2 -6.0
2020-Jan-18 04:10 113 0 gusting 1 -6.8
2020-Jan-18 04:05 324 0 gusting 2 -6.6
2020-Jan-18 04:00 328 1 gusting 1 -6.2
2020-Jan-18 03:55 339 1 gusting 1 -5.8
2020-Jan-18 03:50 345 1 gusting 1 -5.6
2020-Jan-18 03:45 021 1 gusting 1 -6.2
2020-Jan-18 03:40 084 1 gusting 1 -6.7
2020-Jan-18 03:35 112 0 gusting 2 -5.8
2020-Jan-18 03:30 021 0 gusting 1 -5.8
2020-Jan-18 03:25 263 2 gusting 2 -5.9
2020-Jan-18 03:20 239 1 gusting 1 -5.2
2020-Jan-18 03:15 244 1 gusting 2 -5.6
2020-Jan-18 03:10 284 2 gusting 2 -5.8
2020-Jan-18 03:05 308 1 gusting 2 -5.6
2020-Jan-18 03:00 293 0 gusting 1 -5.3
2020-Jan-18 02:55 -5.7
2020-Jan-18 02:50 236 0 gusting 1 -5.9
2020-Jan-18 02:45 315 1 gusting 2 -5.6
2020-Jan-18 02:40 277 1 gusting 2 -5.7
2020-Jan-18 02:35 295 1 gusting 1 -5.3
2020-Jan-18 02:30 296 1 gusting 1 -5.7
2020-Jan-18 02:25 316 0 gusting 1 -5.0
2020-Jan-18 02:20 024 0 gusting 1 -5.0
2020-Jan-18 02:15 005 0 gusting 0 -5.1
2020-Jan-18 02:10 014 0 gusting 1 -5.0
2020-Jan-18 02:05 305 0 gusting 1 -4.7
2020-Jan-18 02:00 016 0 gusting 1 -4.9
2020-Jan-18 01:55 076 0 gusting 1 -5.0
2020-Jan-18 01:50 093 1 gusting 2 -4.9
2020-Jan-18 01:45 115 0 gusting 1 -5.1
2020-Jan-18 01:40 049 0 gusting 1 -5.5
2020-Jan-18 01:35 272 0 gusting 1 -5.7
2020-Jan-18 01:30 332 0 gusting 1 -5.0
2020-Jan-18 01:25 274 1 gusting 1 -5.0
2020-Jan-18 01:20 029 0 gusting 1 -4.8
2020-Jan-18 01:15 050 0 gusting 1 -5.2
2020-Jan-18 01:10 -5.3
2020-Jan-18 01:05 315 0 gusting 1 -4.7
2020-Jan-18 01:00 034 0 gusting 1 -4.7
2020-Jan-18 00:55 052 0 gusting 1 -5.2
2020-Jan-18 00:50 -5.5
2020-Jan-18 00:45 346 0 gusting 1 -5.7
2020-Jan-18 00:40 329 1 gusting 1 -5.4
2020-Jan-18 00:35 329 1 gusting 1 -4.7
2020-Jan-18 00:30 348 1 gusting 1 -5.7
2020-Jan-18 00:25 302 1 gusting 2 -6.0
2020-Jan-18 00:20 294 1 gusting 2 -6.4
2020-Jan-18 00:15 293 1 gusting 3 -6.2
2020-Jan-18 00:10 311 1 gusting 2 -5.0
2020-Jan-18 00:05 337 1 gusting 2 -4.6
2020-Jan-18 00:00 286 2 gusting 2 -4.0
2020-Jan-17 23:55 315 0 gusting 1 -3.5
2020-Jan-17 23:50 002 1 gusting 2 -3.7
2020-Jan-17 23:45 287 2 gusting 2 -3.9
2020-Jan-17 23:40 307 2 gusting 2 -3.5
2020-Jan-17 23:35 340 2 gusting 3 -3.3
2020-Jan-17 23:30 334 2 gusting 5 -3.0
2020-Jan-17 23:25 330 2 gusting 4 -2.7
2020-Jan-17 23:20 344 3 gusting 5 -3.1
2020-Jan-17 23:15 329 3 gusting 4 -3.0
2020-Jan-17 23:10 333 3 gusting 4 -2.7
2020-Jan-17 23:05 340 3 gusting 5 -2.4
2020-Jan-17 23:00 343 4 gusting 6 -2.3
2020-Jan-17 22:55 341 3 gusting 5 -2.2
2020-Jan-17 22:50 347 2 gusting 4 -2.2
2020-Jan-17 22:45 342 4 gusting 6 -2.0
2020-Jan-17 22:40 342 4 gusting 7 -1.8
2020-Jan-17 22:35 354 4 gusting 7 -1.7
2020-Jan-17 22:30 346 4 gusting 7 -1.7
2020-Jan-17 22:25 344 5 gusting 8 -1.6
2020-Jan-17 22:20 349 4 gusting 9 -1.6
2020-Jan-17 22:15 354 4 gusting 7 -1.4
2020-Jan-17 22:10 351 3 gusting 5 -1.2
2020-Jan-17 22:05 342 4 gusting 8 -1.1
2020-Jan-17 22:00 350 5 gusting 8 -0.9
2020-Jan-17 21:55 345 5 gusting 10 -0.8
2020-Jan-17 21:50 348 4 gusting 7 -0.5
2020-Jan-17 21:45 353 6 gusting 9 -0.5
2020-Jan-17 21:40 349 7 gusting 12 -0.3
2020-Jan-17 21:35 348 5 gusting 10 -0.2
2020-Jan-17 21:30 347 6 gusting 9 -0.2
2020-Jan-17 21:25 344 7 gusting 14 -0.1
2020-Jan-17 21:20 345 7 gusting 13 -0.0
2020-Jan-17 21:15 335 7 gusting 10 0.0
2020-Jan-17 21:10 342 8 gusting 11 0.0
2020-Jan-17 21:05 347 8 gusting 12 0.1
2020-Jan-17 21:00 334 9 gusting 11 0.2
2020-Jan-17 20:55 341 8 gusting 11 0.3
2020-Jan-17 20:50 347 9 gusting 14 0.4
2020-Jan-17 20:45 341 8 gusting 13 0.6
2020-Jan-17 20:40 343 6 gusting 11 0.7
2020-Jan-17 20:35 331 8 gusting 12 0.5
2020-Jan-17 20:30 349 7 gusting 12 0.8
2020-Jan-17 20:25 347 7 gusting 11 0.9
2020-Jan-17 20:20 351 8 gusting 12 0.9
2020-Jan-17 20:15 335 8 gusting 12 0.9
2020-Jan-17 20:10 341 7 gusting 10 0.9
2020-Jan-17 20:05 353 7 gusting 13 0.9
2020-Jan-17 20:00 347 6 gusting 11 1.0
2020-Jan-17 19:55 342 7 gusting 12 1.0
2020-Jan-17 19:50 342 9 gusting 16 1.0
2020-Jan-17 19:45 321 11 gusting 15 1.0
2020-Jan-17 19:40 325 10 gusting 13 0.7
2020-Jan-17 19:35 342 10 gusting 16 1.0
2020-Jan-17 19:30 338 9 gusting 15 1.1
2020-Jan-17 19:25 328 9 gusting 12 0.9
2020-Jan-17 19:20 335 10 gusting 14 1.3
2020-Jan-17 19:15 007 5 gusting 9 1.4
2020-Jan-17 19:10 354 8 gusting 14 1.1
2020-Jan-17 19:05 351 7 gusting 12 1.4
2020-Jan-17 19:00 003 6 gusting 11 1.2
2020-Jan-17 18:55 352 8 gusting 14 1.0
2020-Jan-17 18:50 335 11 gusting 18 1.3
2020-Jan-17 18:45 346 9 gusting 14 1.0
2020-Jan-17 18:40 350 9 gusting 15 1.3
2020-Jan-17 18:35 340 10 gusting 15 1.2
2020-Jan-17 18:30 341 9 gusting 13 1.2
2020-Jan-17 18:25 355 7 gusting 12 1.2
2020-Jan-17 18:20 355 9 gusting 19 1.2
2020-Jan-17 18:15 345 10 gusting 18 1.2
2020-Jan-17 18:10 346 10 gusting 15 1.4
2020-Jan-17 18:05 350 10 gusting 14 1.1
2020-Jan-17 18:00 353 10 gusting 15 1.1
2020-Jan-17 17:55 336 11 gusting 18 1.2
2020-Jan-17 17:50 346 9 gusting 16 0.6
2020-Jan-17 17:45 350 10 gusting 18 0.9
2020-Jan-17 17:40 014 6 gusting 14 1.2
2020-Jan-17 17:35 009 6 gusting 14 0.9
2020-Jan-17 17:30 355 10 gusting 17 1.0
2020-Jan-17 17:25 342 11 gusting 16 1.1
2020-Jan-17 17:20 344 11 gusting 19 1.2
2020-Jan-17 17:15 340 9 gusting 14 1.4
2020-Jan-17 17:10 327 12 gusting 17 1.2
2020-Jan-17 17:05 344 9 gusting 14 1.1
2020-Jan-17 17:00 356 10 gusting 17 1.0
2020-Jan-17 16:55 350 9 gusting 15 0.8
2020-Jan-17 16:50 349 10 gusting 18 0.6
2020-Jan-17 16:45 343 12 gusting 17 0.6
2020-Jan-17 16:40 340 13 gusting 20 0.7
2020-Jan-17 16:35 350 10 gusting 15 0.7
2020-Jan-17 16:30 342 10 gusting 17 0.8
2020-Jan-17 16:25 343 11 gusting 17 0.7
2020-Jan-17 16:20 343 13 gusting 20 0.6
2020-Jan-17 16:15 341 11 gusting 18 0.8
2020-Jan-17 16:10 345 8 gusting 12 0.9
2020-Jan-17 16:05 340 10 gusting 15 0.4
2020-Jan-17 16:00 348 11 gusting 21 0.4
2020-Jan-17 15:55 351 10 gusting 18 0.3
2020-Jan-17 15:50 356 9 gusting 18 0.2
2020-Jan-17 15:45 359 9 gusting 16 0.2
2020-Jan-17 15:40 353 9 gusting 17 0.4
2020-Jan-17 15:35 353 8 gusting 14 0.5
2020-Jan-17 15:30 351 8 gusting 14 0.2
2020-Jan-17 15:25 355 9 gusting 18 0.0
2020-Jan-17 15:20 351 9 gusting 14 0.2
2020-Jan-17 15:15 351 10 gusting 16 0.2
2020-Jan-17 15:10 344 8 gusting 13 0.2
2020-Jan-17 15:05 339 10 gusting 15 -0.0
2020-Jan-17 15:00 344 9 gusting 14 -0.2
2020-Jan-17 14:55 341 11 gusting 17 -0.1
2020-Jan-17 14:50 346 9 gusting 16 -0.3
2020-Jan-17 14:45 337 13 gusting 19 -0.5
2020-Jan-17 14:40 344 9 gusting 17 -0.5
2020-Jan-17 14:35 348 11 gusting 19 -0.6
2020-Jan-17 14:30 349 10 gusting 17 -0.5
2020-Jan-17 14:25 343 12 gusting 18 -0.6
2020-Jan-17 14:20 339 11 gusting 17 -0.6
2020-Jan-17 14:15 343 8 gusting 14 -0.6
2020-Jan-17 14:10 349 10 gusting 14 -0.8
2020-Jan-17 14:05 340 10 gusting 17 -0.8
2020-Jan-17 14:00 336 12 gusting 16 -0.9
2020-Jan-17 13:55 334 11 gusting 18 -0.8
2020-Jan-17 13:50 334 9 gusting 16 -0.8
2020-Jan-17 13:45 339 9 gusting 17 -1.0
2020-Jan-17 13:40 342 10 gusting 16 -1.0
2020-Jan-17 13:35 337 8 gusting 14 -1.1
2020-Jan-17 13:30 347 10 gusting 15 -1.2
2020-Jan-17 13:25 338 11 gusting 17 -1.2
2020-Jan-17 13:20 339 10 gusting 16 -1.3
2020-Jan-17 13:15 339 8 gusting 13 -1.3
2020-Jan-17 13:10 339 10 gusting 14 -1.3
2020-Jan-17 13:05 339 10 gusting 16 -1.4
2020-Jan-17 13:00 337 9 gusting 15 -1.5
2020-Jan-17 12:55 336 9 gusting 17 -1.5
2020-Jan-17 12:50 343 7 gusting 12 -1.4
2020-Jan-17 12:45 344 9 gusting 15 -1.4
2020-Jan-17 12:40 340 9 gusting 15 -1.4
2020-Jan-17 12:35 341 10 gusting 16 -1.3
2020-Jan-17 12:30 346 9 gusting 17 -1.3
2020-Jan-17 12:25 341 13 gusting 18 -1.3
2020-Jan-17 12:20 338 11 gusting 17 -1.4
2020-Jan-17 12:15 339 12 gusting 18 -1.4
2020-Jan-17 12:10 334 11 gusting 19 -1.5
2020-Jan-17 12:05 336 8 gusting 12 -1.4
2020-Jan-17 12:00 336 8 gusting 13 -1.4
2020-Jan-17 11:55 337 9 gusting 13 -1.3
2020-Jan-17 11:50 335 8 gusting 14 -1.4
2020-Jan-17 11:45 330 9 gusting 14 -1.3
2020-Jan-17 11:40 329 9 gusting 13 -1.2
2020-Jan-17 11:35 327 9 gusting 12 -1.0
2020-Jan-17 11:30 332 10 gusting 14 -0.9
2020-Jan-17 11:25 326 9 gusting 16 -0.9
2020-Jan-17 11:20 326 10 gusting 15 -0.8
2020-Jan-17 11:15 329 12 gusting 17 -0.7
2020-Jan-17 11:10 326 10 gusting 17 -0.7
2020-Jan-17 11:05 330 11 gusting 15 -0.6
2020-Jan-17 11:00 331 12 gusting 16 -0.4
2020-Jan-17 10:55 336 12 gusting 19 -0.4
2020-Jan-17 10:50 333 13 gusting 18 -0.2
2020-Jan-17 10:45 334 15 gusting 22 -0.1
2020-Jan-17 10:40 336 17 gusting 25 -0.0
2020-Jan-17 10:35 335 14 gusting 21 0.0
2020-Jan-17 10:30 334 15 gusting 21 0.0
2020-Jan-17 10:25 337 15 gusting 24 0.2
2020-Jan-17 10:20 341 11 gusting 21 0.1
2020-Jan-17 10:15 336 12 gusting 20 0.0
2020-Jan-17 10:10 333 13 gusting 19 0.1
2020-Jan-17 10:05 333 12 gusting 17 0.2
2020-Jan-17 10:00 335 11 gusting 18 0.1
2020-Jan-17 09:55 332 11 gusting 17 0.3
2020-Jan-17 09:50 334 13 gusting 19 0.3
2020-Jan-17 09:45 331 12 gusting 18 0.1
2020-Jan-17 09:40 327 13 gusting 18 0.2
2020-Jan-17 09:35 330 13 gusting 18 0.3
2020-Jan-17 09:30 328 13 gusting 19 0.2
2020-Jan-17 09:25 327 11 gusting 17 0.3
2020-Jan-17 09:20 326 12 gusting 19 0.3
2020-Jan-17 09:15 331 9 gusting 16 0.3
2020-Jan-17 09:10 335 11 gusting 14 0.4
2020-Jan-17 09:05 335 12 gusting 17 0.3
2020-Jan-17 09:00 331 10 gusting 14 0.4
2020-Jan-17 08:55 330 11 gusting 17 0.5
2020-Jan-17 08:50 329 12 gusting 17 0.5
2020-Jan-17 08:45 333 10 gusting 19 0.5
2020-Jan-17 08:40 323 12 gusting 18 0.5
2020-Jan-17 08:35 325 9 gusting 16 0.3
2020-Jan-17 08:30 324 10 gusting 16 0.5
2020-Jan-17 08:25 323 10 gusting 16 0.4
2020-Jan-17 08:20 324 9 gusting 13 0.5
2020-Jan-17 08:15 333 8 gusting 12 0.6
2020-Jan-17 08:10 328 9 gusting 13 0.6
2020-Jan-17 08:05 329 7 gusting 10 0.5
2020-Jan-17 08:00 327 8 gusting 14 0.7
2020-Jan-17 07:55 333 10 gusting 15 0.9
2020-Jan-17 07:50 331 11 gusting 16 1.1
2020-Jan-17 07:45 334 10 gusting 14 1.0
2020-Jan-17 07:40 336 11 gusting 16 1.1
2020-Jan-17 07:35 336 10 gusting 16 1.0
2020-Jan-17 07:30 333 9 gusting 15 0.9
2020-Jan-17 07:25 332 10 gusting 14 0.8
2020-Jan-17 07:20 328 8 gusting 11 1.0
2020-Jan-17 07:15 332 10 gusting 14 1.0
2020-Jan-17 07:10 331 11 gusting 21 1.2
2020-Jan-17 07:05 333 10 gusting 15 1.1
2020-Jan-17 07:00 328 10 gusting 17 1.0
2020-Jan-17 06:55 330 8 gusting 13 0.9
2020-Jan-17 06:50 329 8 gusting 11 0.9
2020-Jan-17 06:45 329 8 gusting 12 1.2
2020-Jan-17 06:40 329 10 gusting 15 1.3
2020-Jan-17 06:35 330 9 gusting 12 1.2
2020-Jan-17 06:30 331 9 gusting 13 1.3
2020-Jan-17 06:25 333 9 gusting 13 1.6
2020-Jan-17 06:20 334 11 gusting 16 1.5
2020-Jan-17 06:15 331 9 gusting 15 1.6
2020-Jan-17 06:10 330 11 gusting 16 1.9
2020-Jan-17 06:05 329 13 gusting 21 1.8
2020-Jan-17 06:00 327 12 gusting 18 1.9
2020-Jan-17 05:55 328 11 gusting 17 2.1
2020-Jan-17 05:50 339 11 gusting 20 2.2
2020-Jan-17 05:45 334 10 gusting 15 2.1
2020-Jan-17 05:40 329 10 gusting 15 2.1
2020-Jan-17 05:35 334 9 gusting 16 2.1
2020-Jan-17 05:30 324 9 gusting 12 2.0
2020-Jan-17 05:25 325 9 gusting 15 2.1
2020-Jan-17 05:20 334 14 gusting 23 2.2
2020-Jan-17 05:15 327 11 gusting 18 2.2
2020-Jan-17 05:10 324 12 gusting 19 1.9
2020-Jan-17 05:05 318 11 gusting 16 1.9
2020-Jan-17 05:00 319 10 gusting 15 1.8
2020-Jan-17 04:55 320 11 gusting 16 1.9
2020-Jan-17 04:50 323 12 gusting 17 2.1
2020-Jan-17 04:45 327 13 gusting 18 2.3
2020-Jan-17 04:40 325 15 gusting 19 2.3
2020-Jan-17 04:35 319 15 gusting 20 2.3
2020-Jan-17 04:30 323 14 gusting 19 2.3
2020-Jan-17 04:25 322 16 gusting 23 2.4
2020-Jan-17 04:20 322 15 gusting 22 2.3
2020-Jan-17 04:15 325 14 gusting 20 2.3
2020-Jan-17 04:10 321 15 gusting 18 2.5
2020-Jan-17 04:05 321 15 gusting 24 2.4
2020-Jan-17 04:00 319 15 gusting 21 2.6
2020-Jan-17 03:55 326 15 gusting 27 2.5
2020-Jan-17 03:50 320 14 gusting 19 2.6
2020-Jan-17 03:45 326 17 gusting 24 2.5
2020-Jan-17 03:40 319 13 gusting 17 2.5
2020-Jan-17 03:35 316 13 gusting 20 2.5
2020-Jan-17 03:30 315 11 gusting 15 2.4
2020-Jan-17 03:25 321 12 gusting 18 2.6
2020-Jan-17 03:20 328 13 gusting 19 2.7
2020-Jan-17 03:15 330 16 gusting 25 2.9
2020-Jan-17 03:10 323 18 gusting 26 2.9
2020-Jan-17 03:05 326 16 gusting 25 2.9
2020-Jan-17 03:00 325 18 gusting 24 3.1
2020-Jan-17 02:55 323 19 gusting 27 3.1
2020-Jan-17 02:50 324 15 gusting 20 3.0
2020-Jan-17 02:45 322 15 gusting 21 2.9
2020-Jan-17 02:40 322 13 gusting 18 3.0
2020-Jan-17 02:35 322 15 gusting 21 3.1
2020-Jan-17 02:30 323 15 gusting 21 3.2
2020-Jan-17 02:25 321 16 gusting 24 3.3
2020-Jan-17 02:20 319 17 gusting 25 3.3
2020-Jan-17 02:15 322 16 gusting 24 3.4
2020-Jan-17 02:10 322 17 gusting 23 3.5
2020-Jan-17 02:05 321 17 gusting 25 3.5
2020-Jan-17 02:00 325 16 gusting 21 3.5
2020-Jan-17 01:55 325 18 gusting 23 3.5
2020-Jan-17 01:50 323 14 gusting 22 3.5
2020-Jan-17 01:45 327 14 gusting 21 3.6
2020-Jan-17 01:40 326 15 gusting 22 3.6
2020-Jan-17 01:35 327 16 gusting 23 3.8
2020-Jan-17 01:30 321 17 gusting 25 3.8
2020-Jan-17 01:25 320 14 gusting 19 3.9
2020-Jan-17 01:20 320 18 gusting 30 4.0
2020-Jan-17 01:15 325 15 gusting 23 4.0
2020-Jan-17 01:10 319 17 gusting 22 4.1
2020-Jan-17 01:05 321 13 gusting 18 4.2
2020-Jan-17 01:00 322 18 gusting 23 4.4
2020-Jan-17 00:55 323 19 gusting 26 4.5
2020-Jan-17 00:50 323 18 gusting 25 4.4
2020-Jan-17 00:45 321 14 gusting 20 4.5
2020-Jan-17 00:40 319 15 gusting 26 4.7
2020-Jan-17 00:35 323 19 gusting 26 4.9
2020-Jan-17 00:30 318 17 gusting 24 4.9
2020-Jan-17 00:25 323 19 gusting 28 5.1
2020-Jan-17 00:20 324 19 gusting 29 5.0
2020-Jan-17 00:15 326 18 gusting 26 5.2
2020-Jan-17 00:10 337 19 gusting 30 5.4
2020-Jan-17 00:05 329 15 gusting 20 5.4
2020-Jan-17 00:00 330 17 gusting 24 5.5
2020-Jan-16 23:55 326 14 gusting 19 5.5
2020-Jan-16 23:50 331 13 gusting 18 5.9
2020-Jan-16 23:45 334 10 gusting 17 6.1
2020-Jan-16 23:40 343 13 gusting 21 6.3
2020-Jan-16 23:35 334 12 gusting 17 6.4
2020-Jan-16 23:30 331 16 gusting 22 6.7
2020-Jan-16 23:25 329 17 gusting 23 6.7
2020-Jan-16 23:20 327 15 gusting 21 6.8
2020-Jan-16 23:15 321 13 gusting 22 6.6
2020-Jan-16 23:10 324 9 gusting 12 6.5
2020-Jan-16 23:05 320 11 gusting 19 6.7
2020-Jan-16 23:00 315 8 gusting 13 6.1
2020-Jan-16 22:55 315 7 gusting 12 6.2
2020-Jan-16 22:50 313 8 gusting 11 6.3
2020-Jan-16 22:45 315 9 gusting 12 6.5
2020-Jan-16 22:40 316 10 gusting 13 6.5
2020-Jan-16 22:35 316 11 gusting 16 6.5
2020-Jan-16 22:30 317 9 gusting 14 6.4
2020-Jan-16 22:25 315 11 gusting 17 6.8
2020-Jan-16 22:20 316 12 gusting 18 6.7
2020-Jan-16 22:15 314 11 gusting 16 6.9
2020-Jan-16 22:10 317 13 gusting 22 6.9
2020-Jan-16 22:05 317 14 gusting 20 7.1
2020-Jan-16 22:00 323 15 gusting 23 7.0
2020-Jan-16 21:55 317 12 gusting 18 7.2
2020-Jan-16 21:50 320 15 gusting 21 7.5
2020-Jan-16 21:45 322 18 gusting 24 7.5
2020-Jan-16 21:40 323 16 gusting 23 7.6
2020-Jan-16 21:35 319 18 gusting 24 7.6
2020-Jan-16 21:30 319 19 gusting 27 7.9
2020-Jan-16 21:25 319 19 gusting 30 8.0
2020-Jan-16 21:20 319 19 gusting 31 8.2
2020-Jan-16 21:15 325 15 gusting 21 8.1
2020-Jan-16 21:10 325 12 gusting 18 8.2
2020-Jan-16 21:05 322 17 gusting 24 8.4
2020-Jan-16 21:00 327 14 gusting 22 8.4
2020-Jan-16 20:55 323 17 gusting 22 8.6
2020-Jan-16 20:50 320 16 gusting 22 8.7
2020-Jan-16 20:45 329 15 gusting 21 8.8
2020-Jan-16 20:40 328 13 gusting 18 9.0
2020-Jan-16 20:35 319 15 gusting 22 9.1
2020-Jan-16 20:30 319 18 gusting 25 9.2
2020-Jan-16 20:25 318 18 gusting 30 9.4
2020-Jan-16 20:20 320 17 gusting 24 9.5
2020-Jan-16 20:15 320 17 gusting 27 9.6
2020-Jan-16 20:10 324 18 gusting 25 9.6
2020-Jan-16 20:05 330 19 gusting 25 9.8
2020-Jan-16 20:00 331 17 gusting 25 10.0
2020-Jan-16 19:55 329 15 gusting 24 10.1
2020-Jan-16 19:50 331 18 gusting 26 10.1
2020-Jan-16 19:45 317 19 gusting 28 10.5
2020-Jan-16 19:40 314 16 gusting 25 10.5
2020-Jan-16 19:35 326 14 gusting 21 10.6
2020-Jan-16 19:30 323 14 gusting 20 10.6
2020-Jan-16 19:25 325 16 gusting 23 10.9
2020-Jan-16 19:20 324 14 gusting 22 11.0
2020-Jan-16 19:15 326 15 gusting 22 11.1
2020-Jan-16 19:10 326 16 gusting 22 11.3
2020-Jan-16 19:05 320 12 gusting 20 11.6
2020-Jan-16 19:00 310 14 gusting 23 11.3
2020-Jan-16 18:55 303 17 gusting 24 11.2
2020-Jan-16 18:50 309 19 gusting 24 11.0
2020-Jan-16 18:45 309 16 gusting 25 11.4
2020-Jan-16 18:40 315 15 gusting 19 11.3
2020-Jan-16 18:35 312 17 gusting 25 11.2
2020-Jan-16 18:30 311 18 gusting 24 11.2
2020-Jan-16 18:25 310 20 gusting 27 11.2
2020-Jan-16 18:20 308 19 gusting 26 11.3
2020-Jan-16 18:15 308 18 gusting 28 11.4
2020-Jan-16 18:10 305 17 gusting 23 11.3
2020-Jan-16 18:05 298 19 gusting 25 11.4
2020-Jan-16 18:00 305 15 gusting 20 11.5
2020-Jan-16 17:55 313 17 gusting 23 11.5
2020-Jan-16 17:50 299 17 gusting 25 11.5
2020-Jan-16 17:45 298 15 gusting 20 11.5
2020-Jan-16 17:40 293 16 gusting 21 11.6
2020-Jan-16 17:35 304 14 gusting 19 11.7
2020-Jan-16 17:30 300 16 gusting 23 11.6
2020-Jan-16 17:25 296 16 gusting 20 11.5
2020-Jan-16 17:20 299 17 gusting 22 11.5
2020-Jan-16 17:15 307 14 gusting 20 11.2
2020-Jan-16 17:10 306 15 gusting 21 10.7
2020-Jan-16 17:05 313 16 gusting 22 10.4
2020-Jan-16 17:00 310 17 gusting 27 10.5
2020-Jan-16 16:55 310 18 gusting 26 10.9
2020-Jan-16 16:50 310 16 gusting 25 10.3
2020-Jan-16 16:45 315 17 gusting 24 10.1
2020-Jan-16 16:40 317 17 gusting 24 10.2
2020-Jan-16 16:35 317 19 gusting 27 10.3
2020-Jan-16 16:30 318 16 gusting 24 10.4
2020-Jan-16 16:25 319 14 gusting 23 10.5
2020-Jan-16 16:20 321 15 gusting 23 10.7
2020-Jan-16 16:15 312 13 gusting 23 10.8
2020-Jan-16 16:10 309 13 gusting 17 10.9
2020-Jan-16 16:05 315 15 gusting 26 10.9
2020-Jan-16 16:00 308 16 gusting 22 10.9
2020-Jan-16 15:55 311 19 gusting 25 11.0
2020-Jan-16 15:50 317 20 gusting 27 11.1
2020-Jan-16 15:45 318 19 gusting 27 11.1
2020-Jan-16 15:40 320 19 gusting 24 11.2
2020-Jan-16 15:35 315 18 gusting 25 11.2
2020-Jan-16 15:30 316 15 gusting 23 11.3
2020-Jan-16 15:25 317 16 gusting 25 11.4
2020-Jan-16 15:20 318 15 gusting 26 11.4
2020-Jan-16 15:15 314 15 gusting 23 11.6
2020-Jan-16 15:10 314 15 gusting 21 11.7
2020-Jan-16 15:05 313 13 gusting 22 11.9
2020-Jan-16 15:00 317 14 gusting 25 12.0
2020-Jan-16 14:55 304 15 gusting 25 12.1
2020-Jan-16 14:50 310 16 gusting 24 12.1
2020-Jan-16 14:45 315 16 gusting 24 12.1
2020-Jan-16 14:40 318 16 gusting 23 12.1
2020-Jan-16 14:35 310 18 gusting 24 12.1
2020-Jan-16 14:30 313 15 gusting 25 12.0
2020-Jan-16 14:25 312 14 gusting 19 11.9
2020-Jan-16 14:20 313 12 gusting 18 11.9
2020-Jan-16 14:15 309 11 gusting 17 11.8
2020-Jan-16 14:10 307 12 gusting 17 11.8
2020-Jan-16 14:05 306 11 gusting 18 11.8
2020-Jan-16 14:00 309 11 gusting 17 11.7
2020-Jan-16 13:55 309 11 gusting 14 11.6
2020-Jan-16 13:50 303 10 gusting 16 11.5
2020-Jan-16 13:45 303 10 gusting 13 11.5
2020-Jan-16 13:40 302 10 gusting 14 11.5
2020-Jan-16 13:35 299 10 gusting 14 11.3
2020-Jan-16 13:30 298 10 gusting 14 11.2
2020-Jan-16 13:25 302 10 gusting 12 11.0
2020-Jan-16 13:20 298 9 gusting 13 11.1
2020-Jan-16 13:15 305 10 gusting 16 11.2
2020-Jan-16 13:10 310 12 gusting 16 11.0
2020-Jan-16 13:05 316 11 gusting 16 10.8
2020-Jan-16 13:00 311 11 gusting 15 10.9
2020-Jan-16 12:55 312 11 gusting 16 10.7
2020-Jan-16 12:50 316 11 gusting 17 10.7
2020-Jan-16 12:45 312 11 gusting 15 10.9
2020-Jan-16 12:40 308 10 gusting 16 10.8
2020-Jan-16 12:35 311 9 gusting 13 10.7
2020-Jan-16 12:30 311 9 gusting 13 10.5
2020-Jan-16 12:25 306 7 gusting 10 10.7
2020-Jan-16 12:20 304 9 gusting 12 10.7
2020-Jan-16 12:10 298 7 gusting 11 10.6
2020-Jan-16 12:05 298 8 gusting 13 10.7
2020-Jan-16 12:00 298 8 gusting 12 10.5
2020-Jan-16 11:55 295 8 gusting 13 10.1
2020-Jan-16 11:50 290 6 gusting 9 9.8
2020-Jan-16 11:45 285 6 gusting 8 9.9
2020-Jan-16 11:40 286 6 gusting 8 10.0
2020-Jan-16 11:35 290 5 gusting 8 9.9
2020-Jan-16 11:30 304 5 gusting 7 9.8
2020-Jan-16 11:25 308 5 gusting 7 10.0
2020-Jan-16 11:20 306 6 gusting 8 10.2
2020-Jan-16 11:15 297 6 gusting 9 10.2
2020-Jan-16 11:10 300 6 gusting 9 10.2
2020-Jan-16 11:05 315 8 gusting 10 10.1
2020-Jan-16 11:00 314 6 gusting 9 10.1